Location: North Evanston
(42.0634°N, 87.6976°W)
Time: 11:24:52
(UTC+00:00)

Injun/Solrad 3 - Pass Details

Date: 11 May 2026
Orbit: 867 x 989 km, 66.8° (Epoch: 11 June)

Event Time Altitude Azimuth Distance (km) Brightness Sun altitude
Rises 01:07:56 0° 284° (WNW) 3,566 13.1 -2.2°
Reaches altitude 10° 01:13:09 10° 322° (NW) 2,664 11.6 -3.1°
Maximum altitude 01:14:28 11° 334° (NNW) 2,626 11.2 -3.3°
Drops below altitude 10° 01:15:48 10° 347° (NNW) 2,684 11.0 -3.5°
Sets 01:21:10 0° 24° (NNE) 3,666 11.1 -4.4°
